Terminal Aerodrome Forecast
Issued by NWS Birmingham, AL

Home | Current Version | Previous Version | Text Only | Print | Product List | Glossary On
Versions: 1 2 3 4 5 6 7 8 9 10 11 12 13 14
117
FTUS44 KBMX 122325
TAFBHM
TAF
KBHM 122325Z 1300/1324 31012G17KT P6SM SKC
     FM130600 35008KT P6SM SKC=

USA.gov is the U.S. government's official web portal to all federal, state and local government web resources and services.